Weather History for Ortonville, MN

Change the Weather History Date:

Wednesday, January 29, 2014

  Actual Average (KAQP) Record (KAQP)
Temperature  
Mean Temperature 12 °F -  
Max Temperature 30 °F 20 °F 35 °F (2014)
Min Temperature -5 °F 4 °F -23 °F (2004)
Degree Days  
Heating Degree Days 52    
Moisture  
Dew Point 3 °F    
Average Humidity 65    
Maximum Humidity 79    
Minimum Humidity 40    
Precipitation  
Precipitation 0.00 in - - ()
Sea Level Pressure  
Sea Level Pressure 29.72 in    
Wind  
Wind Speed 5 mph (SSW)    
Max Wind Speed 15 mph    
Max Gust Speed 20 mph    
Visibility 10 miles    
Events      
Averages and records for this station are not official NWS values.
T = Trace of Precipitation, MM = Missing Value Source: NWS Daily Summary

Daily Weather History Graph

Daily Weather History Graph

Search for Another Location

Airport:

Trip Planner

Search our weather history database for the weather conditions in past years. The results will help you decide how hot, cold, wet, or windy it might be!

Date:

Astronomy

Jan. 29, 2014 Rise Set
Actual Time 7:49 AM CST 5:28 PM CST
Civil Twilight 7:17 AM CST 6:00 PM CST
Nautical Twilight 6:42 AM CST 6:35 PM CST
Astronomical Twilight 6:07 AM CST 7:10 PM CST
Moon 6:27 AM CST (1/29) 4:29 PM CST (1/29)
Length of Visible Light 10h 42m
Length of Day
9h 39m
Waning Crescent, 2% of the Moon is Illuminated
Jan 29
Waning Crescent
Jan 30
New
Feb 6
First Quarter
Feb 14
Full
Feb 22
Last Quarter

Hourly Weather History & Observations

Time (CST) Temp. Windchill Dew Point Humidity Pressure Visibility Wind Dir Wind Speed Gust Speed Precip Events Conditions
12:14 AM -2.2 °F -10.4 °F -11.2 °F 66% 30.05 in 10.0 mi South 3.5 mph - N/A   Clear
12:34 AM -2.2 °F -10.4 °F -9.4 °F 71% 30.04 in 10.0 mi South 3.5 mph - N/A   Clear
12:54 AM -2.2 °F - -11.2 °F 66% 30.03 in 10.0 mi Calm Calm - N/A   Clear
1:14 AM -2.2 °F - -11.2 °F 66% 30.02 in 10.0 mi Calm Calm - N/A   Clear
1:34 AM -5.8 °F - -11.2 °F 77% 30.02 in 10.0 mi Calm Calm - N/A   Clear
1:54 AM -2.2 °F - -11.2 °F 66% 30.01 in 10.0 mi Calm Calm - N/A   Clear
2:14 AM -5.8 °F -14.5 °F -13.0 °F 71% 30.00 in 10.0 mi South 3.5 mph - N/A   Clear
2:34 AM -2.2 °F -12.5 °F -9.4 °F 71% 29.99 in 10.0 mi South 4.6 mph - N/A   Clear
2:54 AM -2.2 °F -12.5 °F -9.4 °F 71% 29.98 in 10.0 mi South 4.6 mph - N/A   Clear
3:14 AM 1.4 °F -8.3 °F -7.6 °F 66% 29.97 in 10.0 mi South 4.6 mph - N/A   Clear
3:34 AM -2.2 °F -10.4 °F -9.4 °F 71% 29.96 in 10.0 mi SSE 3.5 mph - N/A   Clear
3:54 AM -2.2 °F -14.2 °F -9.4 °F 71% 29.94 in 10.0 mi SSE 5.8 mph - N/A   Clear
4:14 AM -5.8 °F - -11.2 °F 77% 29.93 in 10.0 mi Calm Calm - N/A   Clear
4:33 AM -5.8 °F - -11.2 °F 77% 29.93 in 10.0 mi Calm Calm - N/A   Clear
4:54 AM -5.8 °F -19.9 °F -11.2 °F 77% 29.91 in 10.0 mi SSE 6.9 mph - N/A   Clear
5:14 AM -5.8 °F -21.2 °F -11.2 °F 77% 29.91 in 10.0 mi SSE 8.1 mph - N/A   Clear
5:34 AM -4.0 °F -19.0 °F -9.4 °F 78% 29.89 in 10.0 mi South 8.1 mph - N/A   Clear
5:54 AM -2.2 °F -14.2 °F -9.4 °F 71% 29.87 in 10.0 mi SSE 5.8 mph - N/A   Clear
6:14 AM -2.2 °F -14.2 °F -9.4 °F 71% 29.86 in 10.0 mi SSE 5.8 mph - N/A   Clear
6:34 AM -2.2 °F -15.6 °F -9.4 °F 71% 29.85 in 10.0 mi SE 6.9 mph - N/A   Clear
6:53 AM -5.8 °F -18.4 °F -11.2 °F 77% 29.84 in 10.0 mi SSE 5.8 mph - N/A   Clear
7:14 AM -2.2 °F -14.2 °F -9.4 °F 71% 29.83 in 10.0 mi SSE 5.8 mph - N/A   Clear
7:34 AM -2.2 °F -15.6 °F -9.4 °F 71% 29.82 in 10.0 mi SSE 6.9 mph - N/A   Clear
7:54 AM -2.2 °F -12.5 °F -9.4 °F 71% 29.80 in 10.0 mi SSE 4.6 mph - N/A   Clear
8:14 AM -0.4 °F -10.4 °F -7.6 °F 72% 29.80 in 10.0 mi SSE 4.6 mph - N/A   Clear
8:34 AM 1.4 °F -11.3 °F -5.8 °F 72% 29.79 in 10.0 mi SSE 6.9 mph - N/A   Clear
8:54 AM 3.2 °F -7.8 °F -5.8 °F 66% 29.79 in 10.0 mi SSE 5.8 mph - N/A   Clear
9:13 AM 3.2 °F -6.2 °F -4.0 °F 72% 29.78 in 10.0 mi SSE 4.6 mph - N/A   Clear
9:34 AM 6.8 °F -3.5 °F -2.2 °F 67% 29.77 in 10.0 mi SSE 5.8 mph - N/A   Clear
9:54 AM 12.2 °F -0.2 °F -0.4 °F 57% 29.75 in 10.0 mi South 9.2 mph - N/A   Clear
10:13 AM 15.8 °F 2.7 °F 1.4 °F 53% 29.73 in 10.0 mi South 11.5 mph - N/A   Clear
10:34 AM 17.6 °F 5.0 °F 3.2 °F 53% 29.71 in 10.0 mi South 11.5 mph - N/A   Clear
10:54 AM 19.4 °F 7.2 °F 3.2 °F 49% 29.69 in 10.0 mi South 11.5 mph - N/A   Clear
11:13 AM 21.2 °F 10.1 °F 3.2 °F 46% 29.68 in 10.0 mi South 10.4 mph - N/A   Clear
11:34 AM 24.8 °F 14.6 °F 5.0 °F 43% 29.66 in 10.0 mi South 10.4 mph - N/A   Clear
11:54 AM 24.8 °F 14.0 °F 6.8 °F 46% 29.64 in 10.0 mi South 11.5 mph 18.4 mph N/A   Clear
12:14 PM 26.6 °F 15.7 °F 6.8 °F 43% 29.62 in 10.0 mi South 12.7 mph 18.4 mph N/A   Clear
12:34 PM 28.4 °F 19.1 °F 8.6 °F 43% 29.60 in 10.0 mi South 10.4 mph - N/A   Clear
12:54 PM 30.2 °F 21.3 °F 8.6 °F 40% 29.58 in 10.0 mi South 10.4 mph - N/A   Clear
1:14 PM 30.2 °F 23.4 °F 10.4 °F 44% 29.58 in 10.0 mi SSW 6.9 mph - N/A   Clear
1:33 PM 30.2 °F 21.3 °F 10.4 °F 44% 29.57 in 10.0 mi SW 10.4 mph - N/A   Clear
1:54 PM 30.2 °F 23.4 °F 12.2 °F 47% 29.58 in 10.0 mi West 6.9 mph - N/A   Clear
2:14 PM 30.2 °F 19.8 °F 12.2 °F 47% 29.57 in 10.0 mi West 13.8 mph 17.3 mph N/A   Clear
2:33 PM 30.2 °F 24.3 °F 12.2 °F 47% 29.57 in 10.0 mi SW 5.8 mph - N/A   Clear
2:54 PM 30.2 °F 20.2 °F 12.2 °F 47% 29.57 in 10.0 mi West 12.7 mph - N/A   Clear
3:14 PM 30.2 °F 19.3 °F 14.0 °F 51% 29.55 in 10.0 mi WSW 15.0 mph 19.6 mph N/A   Clear
3:33 PM 30.2 °F 22.6 °F 14.0 °F 51% 29.57 in 10.0 mi West 8.1 mph - N/A   Clear
3:54 PM 30.2 °F 25.4 °F 15.8 °F 55% 29.56 in 10.0 mi West 4.6 mph 10.4 mph N/A   Clear
4:13 PM 30.2 °F 21.3 °F 15.8 °F 55% 29.56 in 10.0 mi WSW 10.4 mph - N/A   Clear
4:34 PM 30.2 °F 26.7 °F 15.8 °F 55% 29.56 in 10.0 mi West 3.5 mph - N/A   Clear
4:54 PM 28.4 °F 23.3 °F 15.8 °F 59% 29.57 in 10.0 mi West 4.6 mph - N/A   Clear
5:14 PM 26.6 °F 20.0 °F 15.8 °F 64% 29.57 in 10.0 mi West 5.8 mph - N/A   Clear
5:34 PM 26.6 °F - 15.8 °F 64% 29.57 in 10.0 mi Calm Calm - N/A   Clear
5:54 PM 24.8 °F - 15.8 °F 69% 29.57 in 10.0 mi Calm Calm - N/A   Clear
6:14 PM 24.8 °F - 14.0 °F 64% 29.58 in 10.0 mi Calm Calm - N/A   Clear
6:34 PM 21.2 °F - 14.0 °F 74% 29.57 in 10.0 mi Calm Calm - N/A   Clear
6:54 PM 24.8 °F - 15.8 °F 69% 29.57 in 10.0 mi Calm Calm - N/A   Clear
7:14 PM 21.2 °F - 14.0 °F 74% 29.56 in 10.0 mi Calm Calm - N/A   Clear
7:34 PM 17.6 °F - 10.4 °F 73% 29.57 in 10.0 mi Calm Calm - N/A   Clear
7:54 PM 19.4 °F 10.4 °F 12.2 °F 74% 29.58 in 10.0 mi North 6.9 mph - N/A   Clear
8:14 PM 19.4 °F 7.9 °F 12.2 °F 74% 29.57 in 10.0 mi North 10.4 mph - N/A   Clear
8:34 PM 19.4 °F 10.4 °F 12.2 °F 74% 29.56 in 10.0 mi North 6.9 mph - N/A   Clear
8:54 PM 17.6 °F 6.4 °F 12.2 °F 79% 29.55 in 10.0 mi North 9.2 mph - N/A   Clear
9:08 PM 17.6 °F 5.7 °F 12.2 °F 79% 29.54 in 10.0 mi North 10.4 mph - N/A   Clear
9:34 PM - - - N/A% 29.54 in 10.0 mi North 9.2 mph - N/A   Clear
9:54 PM 19.4 °F 8.6 °F 12.2 °F 74% 29.55 in 10.0 mi North 9.2 mph - N/A   Clear
10:14 PM 19.4 °F 7.9 °F 12.2 °F 74% 29.56 in 10.0 mi North 10.4 mph - N/A   Clear
10:34 PM 17.6 °F 5.0 °F 10.4 °F 73% 29.56 in 10.0 mi North 11.5 mph - N/A   Clear
10:54 PM 17.6 °F 4.3 °F 10.4 °F 73% 29.56 in 10.0 mi North 12.7 mph - N/A   Scattered Clouds
11:14 PM 17.6 °F 4.3 °F 10.4 °F 73% 29.56 in 10.0 mi North 12.7 mph - N/A   Mostly Cloudy
11:34 PM 17.6 °F 4.3 °F 10.4 °F 73% 29.55 in 10.0 mi North 12.7 mph - N/A   Mostly Cloudy
11:54 PM 17.6 °F 4.3 °F 10.4 °F 73% 29.54 in 10.0 mi North 12.7 mph - N/A   Mostly Cloudy